Back to catalog

QIANFAN-203

AliveCommunicationsPO
NORAD 69802·PAYLOAD·🇨🇳 China

Launched Jul 4, 2026 from Taiyuan Satellite Launch Center

Loading…

Next Passes (next 24 hours)

TLE

FreshSource: Space-Track

Epoch: Sep 14, 2026, 13:06 UTC

1 69802U 26153C   26257.54607296  .00000105  00000-0  53799-4 0  9996
2 69802  88.9981 352.1259 0006151   7.7463 352.3814 14.07835611 10213

Track QIANFAN-203 in real time with AllMySat

Download on the App Store